| time (UTC) | temp C | wind direction | speed KPH | gust KPH | rain 1hr cm | rain 24hr cm | rain mn cm | humidity % | barometer mb |
| 20260507012144 | 12 | 118 | 0.0 | 0.0 | 0.00 | 0.00 | 2.01 | 95 | 1015.2 |
| 20260507011532 | 12 | 118 | 0.0 | 0.0 | 0.00 | 0.00 | 2.01 | 95 | 1014.9 |
| 20260507010953 | 12 | 118 | 0.0 | 0.0 | 0.00 | 0.00 | 2.01 | 95 | 1015.2 |
| 20260507010329 | 12 | 118 | 0.0 | 0.0 | 0.00 | 0.00 | 2.01 | 95 | 1014.9 |
| 20260507005135 | 12 | 118 | 0.0 | 0.0 | 0.00 | 0.00 | 2.01 | 94 | 1014.9 |
| 20260507004543 | 12 | 118 | 0.0 | 0.0 | 0.00 | 0.00 | 2.01 | 94 | 1015.2 |
| 20260507003345 | 13 | 118 | 0.0 | 0.0 | 0.00 | 0.00 | 2.01 | 93 | 1014.9 |
| 20260507002729 | 13 | 118 | 0.0 | 0.0 | 0.00 | 0.00 | 2.01 | 93 | 1014.5 |
| 20260507001548 | 13 | 118 | 0.0 | 0.0 | 0.00 | 0.00 | 2.01 | 93 | 1014.2 |
| 20260507000314 | 13 | 118 | 0.0 | 0.0 | 0.00 | 0.00 | 2.01 | 91 | 1014.2 |
| 20260506235729 | 13 | 118 | 0.0 | 0.0 | 0.00 | 0.00 | 2.01 | 91 | 1014.5 |
| 20260506235133 | 13 | 119 | 1.6 | 1.6 | 0.00 | 0.00 | 2.01 | 91 | 1014.5 |
| 20260506234523 | 13 | 118 | 1.6 | 1.6 | 0.00 | 0.00 | 2.01 | 91 | 1013.8 |
| 20260506233939 | 13 | 121 | 3.2 | 3.2 | 0.00 | 0.00 | 2.01 | 91 | 1014.2 |
| 20260506233351 | 13 | 122 | 1.6 | 1.6 | 0.00 | 0.00 | 2.01 | 90 | 1014.5 |
| 20260506232743 | 13 | 122 | 1.6 | 3.2 | 0.00 | 0.00 | 2.01 | 89 | 1014.9 |
| 20260506232149 | 13 | 136 | 1.6 | 1.6 | 0.00 | 0.00 | 2.01 | 88 | 1014.9 |
| 20260506231525 | 13 | 136 | 0.0 | 1.6 | 0.00 | 0.00 | 2.01 | 89 | 1014.9 |
| 20260506230932 | 13 | 136 | 1.6 | 1.6 | 0.00 | 0.00 | 2.01 | 88 | 1014.5 |
| 20260506230329 | 14 | 176 | 0.0 | 0.0 | 0.00 | 0.00 | 2.01 | 88 | 1014.5 |
| 20260506225711 | 14 | 255 | 0.0 | 0.0 | 0.00 | 0.00 | 2.01 | 87 | 1014.5 |
| 20260506225110 | 14 | 255 | 1.6 | 1.6 | 0.00 | 0.00 | 2.01 | 87 | 1014.5 |
| 20260506224517 | 14 | 256 | 1.6 | 1.6 | 0.00 | 0.00 | 2.01 | 86 | 1014.5 |
| 20260506223932 | 15 | 255 | 1.6 | 1.6 | 0.00 | 0.00 | 2.01 | 84 | 1014.9 |
| 20260506223327 | 15 | 256 | 0.0 | 0.0 | 0.00 | 0.00 | 2.01 | 78 | 1014.5 |
| 20260506222722 | 14 | 256 | 0.0 | 0.0 | 0.00 | 0.00 | 2.01 | 77 | 1014.5 |
| 20260506222145 | 14 | 256 | 0.0 | 0.0 | 0.00 | 0.00 | 2.01 | 84 | 1014.9 |
| 20260506221515 | 14 | 256 | 0.0 | 0.0 | 0.00 | 0.00 | 2.01 | 83 | 1014.5 |
| 20260506220918 | 14 | 256 | 1.6 | 1.6 | 0.00 | 0.00 | 2.01 | 84 | 1014.2 |
| 20260506220343 | 15 | 256 | 1.6 | 0.0 | 0.00 | 0.00 | 2.01 | 80 | 1014.2 |
| 20260506215738 | 15 | 256 | 0.0 | 1.6 | 0.00 | 0.00 | 2.01 | 78 | 1014.2 |
| 20260506215142 | 15 | 256 | 0.0 | 0.0 | 0.00 | 0.00 | 2.01 | 77 | 1014.2 |
| 20260506214549 | 15 | 256 | 0.0 | 1.6 | 0.00 | 0.00 | 2.01 | 74 | 1013.8 |
| 20260506213317 | 15 | 227 | 1.6 | 1.6 | 0.00 | 0.00 | 2.01 | 75 | 1013.8 |
| 20260506212713 | 14 | 224 | 1.6 | 3.2 | 0.00 | 0.00 | 2.01 | 76 | 1014.2 |
| 20260506212127 | 15 | 226 | 4.8 | 4.8 | 0.00 | 0.00 | 2.01 | 75 | 1014.2 |
| 20260506210930 | 15 | 225 | 3.2 | 4.8 | 0.00 | 0.00 | 2.01 | 74 | 1013.8 |
| 20260506210347 | 15 | 346 | 1.6 | 4.8 | 0.00 | 0.00 | 2.01 | 72 | 1013.8 |
| 20260506204531 | 15 | 42 | 1.6 | 1.6 | 0.00 | 0.00 | 2.01 | 73 | 1013.8 |
| 20260506203311 | 15 | 233 | 1.6 | 4.8 | 0.00 | 0.00 | 2.01 | 74 | 1013.8 |
| 20260506202713 | 15 | 253 | 1.6 | 1.6 | 0.00 | 0.00 | 2.01 | 74 | 1013.5 |
| 20260506201533 | 15 | 94 | 1.6 | 3.2 | 0.00 | 0.00 | 2.01 | 76 | 1013.5 |
| 20260506200314 | 14 | 86 | 3.2 | 3.2 | 0.00 | 0.00 | 2.01 | 77 | 1013.8 |
| 20260506195752 | 14 | 16 | 3.2 | 3.2 | 0.00 | 0.00 | 2.01 | 78 | 1013.8 |
| 20260506194536 | 14 | 40 | 3.2 | 3.2 | 0.00 | 0.00 | 2.01 | 77 | 1013.5 |
| 20260506193953 | 14 | 32 | 4.8 | 9.7 | 0.00 | 0.00 | 2.01 | 78 | 1013.8 |
| 20260506193353 | 13 | 220 | 1.6 | 3.2 | 0.00 | 0.00 | 2.01 | 81 | 1013.8 |
| 20260506192743 | 13 | 237 | 3.2 | 4.8 | 0.00 | 0.00 | 2.01 | 82 | 1013.8 |
| 20260506192132 | 13 | 358 | 1.6 | 3.2 | 0.00 | 0.00 | 2.01 | 84 | 1013.8 |
| 20260506191543 | 13 | 50 | 4.8 | 9.7 | 0.00 | 0.00 | 2.01 | 77 | 1013.8 |
| 20260506190913 | 14 | 68 | 3.2 | 11.3 | 0.00 | 0.00 | 2.01 | 77 | 1013.5 |
| 20260506190341 | 13 | 240 | 0.0 | 4.8 | 0.00 | 0.00 | 2.01 | 82 | 1013.8 |
| 20260506185719 | 13 | 339 | 8.0 | 9.7 | 0.00 | 0.00 | 2.01 | 80 | 1013.5 |
| 20260506184536 | 13 | 332 | 1.6 | 4.8 | 0.00 | 0.00 | 2.01 | 82 | 1013.8 |
| 20260506183920 | 13 | 112 | 1.6 | 4.8 | 0.00 | 0.00 | 2.01 | 83 | 1013.5 |
| 20260506183330 | 13 | 45 | 3.2 | 9.7 | 0.00 | 0.00 | 2.01 | 81 | 1013.8 |
| 20260506182741 | 13 | 187 | 1.6 | 3.2 | 0.00 | 0.00 | 2.01 | 84 | 1013.8 |
| 20260506181541 | 12 | 349 | 6.4 | 6.4 | 0.00 | 0.00 | 2.01 | 85 | 1013.8 |
| 20260506180936 | 13 | 9 | 4.8 | 4.8 | 0.00 | 0.00 | 2.01 | 84 | 1013.8 |
| 20260506180354 | 13 | 255 | 3.2 | 3.2 | 0.00 | 0.00 | 2.01 | 84 | 1013.8 |
| 20260506175748 | 13 | 250 | 4.8 | 9.7 | 0.00 | 0.00 | 2.01 | 85 | 1013.8 |
| 20260506175127 | 13 | 231 | 3.2 | 3.2 | 0.00 | 0.00 | 2.01 | 88 | 1013.8 |
| 20260506174531 | 12 | 218 | 4.8 | 6.4 | 0.00 | 0.00 | 2.01 | 87 | 1013.8 |
| 20260506173943 | 12 | 44 | 4.8 | 11.3 | 0.00 | 0.00 | 2.01 | 88 | 1013.8 |
| 20260506173318 | 11 | 344 | 4.8 | 9.7 | 0.00 | 0.00 | 2.01 | 90 | 1013.8 |
| 20260506172712 | 11 | 225 | 3.2 | 6.4 | 0.00 | 0.00 | 2.01 | 91 | 1013.8 |
| 20260506172141 | 11 | 351 | 8.0 | 14.5 | 0.00 | 0.00 | 2.01 | 89 | 1013.8 |
| 20260506170953 | 11 | 235 | 3.2 | 9.7 | 0.00 | 0.00 | 2.01 | 92 | 1013.8 |
| 20260506170310 | 11 | 354 | 6.4 | 6.4 | 0.00 | 0.00 | 2.01 | 91 | 1013.8 |
| 20260506163946 | 11 | 252 | 9.7 | 11.3 | 0.00 | 0.00 | 2.01 | 93 | 1013.8 |
| 20260506163334 | 11 | 208 | 3.2 | 4.8 | 0.00 | 0.00 | 2.01 | 93 | 1013.8 |
| 20260506162749 | 11 | 313 | 3.2 | 16.1 | 0.00 | 0.00 | 2.01 | 92 | 1013.8 |
| 20260506162115 | 11 | 350 | 12.9 | 14.5 | 0.00 | 0.00 | 2.01 | 92 | 1013.8 |
| 20260506161546 | 11 | 264 | 1.6 | 6.4 | 0.00 | 0.00 | 2.01 | 93 | 1013.5 |
| 20260506160934 | 11 | 325 | 9.7 | 12.9 | 0.00 | 0.00 | 2.01 | 93 | 1013.5 |
| 20260506160351 | 11 | 333 | 6.4 | 4.8 | 0.00 | 0.00 | 2.01 | 94 | 1013.5 |
| 20260506155712 | 11 | 240 | 4.8 | 6.4 | 0.00 | 0.00 | 2.01 | 95 | 1013.2 |
| 20260506155128 | 11 | 215 | 3.2 | 6.4 | 0.00 | 0.00 | 2.01 | 95 | 1013.2 |
| 20260506154542 | 11 | 226 | 3.2 | 3.2 | 0.00 | 0.00 | 2.01 | 96 | 1012.8 |
| 20260506153930 | 11 | 218 | 3.2 | 4.8 | 0.00 | 0.00 | 2.01 | 95 | 1013.2 |
| 20260506153334 | 11 | 174 | 3.2 | 3.2 | 0.00 | 0.00 | 2.01 | 95 | 1012.8 |
| 20260506152733 | 11 | 122 | 1.6 | 1.6 | 0.00 | 0.00 | 1.98 | 95 | 1012.8 |
| 20260506151533 | 11 | 132 | 0.0 | 1.6 | 0.00 | 0.00 | 1.98 | 95 | 1012.5 |
| 20260506150933 | 11 | 346 | 6.4 | 6.4 | 0.00 | 0.00 | 1.98 | 94 | 1012.8 |
| 20260506150311 | 11 | 325 | 6.4 | 11.3 | 0.00 | 0.00 | 1.98 | 93 | 1012.5 |
| 20260506145750 | 11 | 6 | 1.6 | 1.6 | 0.00 | 0.00 | 1.98 | 94 | 1012.5 |
| 20260506145133 | 11 | 225 | 0.0 | 1.6 | 0.00 | 0.00 | 1.98 | 94 | 1012.5 |
| 20260506144538 | 12 | 147 | 1.6 | 1.6 | 0.00 | 0.00 | 1.98 | 95 | 1012.5 |
| 20260506143929 | 12 | 351 | 3.2 | 6.4 | 0.00 | 0.00 | 1.98 | 94 | 1012.1 |
| 20260506143317 | 12 | 243 | 3.2 | 6.4 | 0.00 | 0.00 | 1.98 | 94 | 1012.1 |
| 20260506142716 | 12 | 265 | 8.0 | 12.9 | 0.00 | 0.00 | 1.98 | 93 | 1012.1 |
| 20260506142117 | 13 | 239 | 9.7 | 14.5 | 0.00 | 0.00 | 1.98 | 91 | 1011.8 |
| 20260506141523 | 15 | 324 | 9.7 | 12.9 | 0.00 | 0.00 | 1.96 | 95 | 1011.1 |
| 20260506140935 | 15 | 247 | 12.9 | 14.5 | 0.00 | 0.00 | 1.91 | 95 | 1010.8 |
| 20260506140343 | 15 | 251 | 8.0 | 9.7 | 0.00 | 0.00 | 1.91 | 95 | 1010.8 |
| 20260506135734 | 15 | 237 | 8.0 | 14.5 | 0.00 | 0.00 | 1.91 | 94 | 1010.4 |
| 20260506135139 | 15 | 253 | 9.7 | 17.7 | 0.00 | 0.00 | 1.91 | 94 | 1010.4 |
| 20260506134512 | 15 | 261 | 9.7 | 9.7 | 0.00 | 0.00 | 1.91 | 94 | 1010.1 |
| 20260506133920 | 15 | 241 | 6.4 | 14.5 | 0.00 | 0.00 | 1.91 | 95 | 1010.4 |
| 20260506133350 | 15 | 246 | 9.7 | 11.3 | 0.00 | 0.00 | 1.91 | 95 | 1010.1 |
| 20260506132744 | 15 | 254 | 12.9 | 12.9 | 0.00 | 0.00 | 1.91 | 95 | 1010.1 |
| 20260506132120 | 15 | 230 | 8.0 | 12.9 | 0.00 | 0.00 | 1.91 | 96 | 1010.1 |
| 20260506131514 | 15 | 240 | 6.4 | 9.7 | 0.00 | 0.00 | 1.91 | 96 | 1010.1 |
| 20260506130920 | 15 | 220 | 1.6 | 11.3 | 0.00 | 0.00 | 1.91 | 96 | 1010.1 |
| 20260506125727 | 15 | 248 | 4.8 | 6.4 | 0.00 | 0.00 | 1.91 | 96 | 1010.1 |
| 20260506125146 | 15 | 237 | 8.0 | 9.7 | 0.00 | 0.00 | 1.91 | 96 | 1010.4 |
| 20260506124511 | 15 | 235 | 6.4 | 9.7 | 0.00 | 0.00 | 1.91 | 97 | 1010.1 |
| 20260506123932 | 15 | 244 | 6.4 | 9.7 | 0.00 | 0.00 | 1.91 | 97 | 1010.1 |
| 20260506123320 | 15 | 233 | 4.8 | 6.4 | 0.00 | 0.00 | 1.91 | 97 | 1010.4 |
| 20260506122715 | 14 | 238 | 6.4 | 9.7 | 0.00 | 0.00 | 1.91 | 97 | 1009.8 |
| 20260506122149 | 14 | 240 | 8.0 | 9.7 | 0.00 | 0.00 | 1.91 | 97 | 1009.8 |
| 20260506121518 | 14 | 221 | 3.2 | 4.8 | 0.00 | 0.00 | 1.91 | 98 | 1009.8 |
| 20260506120310 | 14 | 227 | 4.8 | 4.8 | 0.00 | 0.00 | 1.91 | 98 | 1009.8 |
| 20260506115715 | 14 | 226 | 1.6 | 4.8 | 0.00 | 0.00 | 1.91 | 98 | 1009.8 |
| 20260506115122 | 14 | 237 | 6.4 | 6.4 | 0.00 | 0.00 | 1.91 | 98 | 1010.1 |
| 20260506114533 | 14 | 188 | 3.2 | 3.2 | 0.00 | 0.00 | 1.88 | 98 | 1009.4 |
| 20260506113948 | 14 | 187 | 0.0 | 1.6 | 0.00 | 0.00 | 1.88 | 98 | 1009.8 |
| 20260506112733 | 14 | 187 | 0.0 | 1.6 | 0.00 | 0.00 | 1.85 | 98 | 1009.8 |
| 20260506111515 | 14 | 144 | 0.0 | 0.0 | 0.00 | 0.00 | 1.85 | 97 | 1009.4 |
| 20260506110913 | 13 | 144 | 0.0 | 0.0 | 0.00 | 0.00 | 1.83 | 97 | 1009.4 |
| 20260506105711 | 13 | 145 | 1.6 | 1.6 | 0.00 | 0.00 | 1.78 | 97 | 1009.4 |
| 20260506105146 | 13 | 144 | 0.0 | 0.0 | 0.00 | 0.00 | 1.75 | 97 | 1009.4 |
| 20260506103921 | 13 | 144 | 0.0 | 0.0 | 0.00 | 0.00 | 1.68 | 97 | 1009.4 |
| 20260506103351 | 13 | 144 | 0.0 | 0.0 | 0.00 | 0.00 | 1.65 | 97 | 1009.4 |
| 20260506102708 | 13 | 144 | 0.0 | 0.0 | 0.00 | 0.00 | 1.63 | 97 | 1009.4 |
| 20260506102109 | 13 | 144 | 0.0 | 0.0 | 0.00 | 0.00 | 1.60 | 97 | 1009.4 |
| 20260506100950 | 13 | 144 | 1.6 | 3.2 | 0.00 | 0.00 | 1.57 | 97 | 1009.4 |
| 20260506095711 | 13 | 125 | 0.0 | 0.0 | 0.00 | 0.00 | 1.50 | 97 | 1009.4 |
| 20260506095149 | 13 | 125 | 0.0 | 1.6 | 0.00 | 0.00 | 1.45 | 97 | 1009.4 |
| 20260506094538 | 13 | 125 | 0.0 | 1.6 | 0.00 | 0.00 | 1.45 | 97 | 1009.4 |
| 20260506093321 | 13 | 126 | 0.0 | 1.6 | 0.00 | 0.00 | 1.42 | 96 | 1009.4 |
| 20260506092747 | 13 | 126 | 0.0 | 0.0 | 0.00 | 0.00 | 1.40 | 96 | 1009.4 |
| 20260506092113 | 13 | 125 | 1.6 | 1.6 | 0.00 | 0.00 | 1.40 | 96 | 1009.4 |
| 20260506090323 | 13 | 154 | 1.6 | 1.6 | 0.00 | 0.00 | 1.30 | 96 | 1009.4 |
| 20260506085736 | 13 | 160 | 3.2 | 3.2 | 0.00 | 0.00 | 1.22 | 96 | 1009.4 |
| 20260506085114 | 13 | 161 | 0.0 | 1.6 | 0.00 | 0.00 | 1.19 | 96 | 1009.4 |
| 20260506083926 | 13 | 128 | 3.2 | 3.2 | 0.00 | 0.00 | 1.14 | 95 | 1009.8 |
| 20260506083337 | 14 | 126 | 0.0 | 0.0 | 0.00 | 0.00 | 1.09 | 95 | 1010.1 |
| 20260506082737 | 14 | 126 | 1.6 | 3.2 | 0.00 | 0.00 | 1.04 | 95 | 1009.8 |
| 20260506082142 | 14 | 118 | 0.0 | 1.6 | 0.00 | 0.00 | 0.89 | 95 | 1009.8 |
| 20260506081514 | 14 | 214 | 0.0 | 1.6 | 0.00 | 0.00 | 0.81 | 94 | 1010.1 |
| 20260506080930 | 14 | 231 | 1.6 | 4.8 | 0.00 | 0.00 | 0.64 | 94 | 1010.1 |
| 20260506080318 | 14 | 189 | 0.0 | 1.6 | 0.00 | 0.00 | 0.51 | 94 | 1010.4 |
| 20260506073309 | 14 | 208 | 0.0 | 1.6 | 0.00 | 0.00 | 0.18 | 91 | 1009.4 |
| 20260506072709 | 15 | 208 | 0.0 | 1.6 | 0.00 | 0.00 | 0.18 | 90 | 1009.4 |
| 20260506072143 | 15 | 226 | 6.4 | 6.4 | 0.00 | 0.00 | 0.18 | 88 | 1009.8 |
| 20260506071550 | 15 | 250 | 9.7 | 11.3 | 0.00 | 0.00 | 0.15 | 88 | 1009.8 |
| 20260506070908 | 15 | 217 | 3.2 | 3.2 | 0.00 | 0.00 | 0.10 | 88 | 1009.4 |
| 20260506070330 | 15 | 218 | 3.2 | 6.4 | 0.00 | 0.00 | 0.10 | 86 | 1009.4 |
| 20260506062127 | 13 | 106 | 0.0 | 0.0 | 0.00 | 0.00 | 0.05 | 95 | 1009.4 |
| 20260506061510 | 13 | 106 | 3.2 | 3.2 | 0.00 | 0.00 | 0.05 | 95 | 1009.4 |
| 20260506060342 | 13 | 105 | 3.2 | 3.2 | 0.00 | 0.00 | 0.05 | 95 | 1009.4 |
| 20260506050949 | 14 | 105 | 1.6 | 1.6 | 0.00 | 0.00 | 0.00 | 91 | 1010.8 |
| 20260506050336 | 14 | 105 | 0.0 | 0.0 | 0.00 | 0.00 | 0.00 | 90 | 1010.8 |
| 20260506044516 | 14 | 105 | 3.2 | 3.2 | 0.00 | 0.00 | 0.00 | 91 | 1010.8 |
| 20260506043920 | 14 | 105 | 3.2 | 1.6 | 0.00 | 0.00 | 0.00 | 91 | 1010.4 |
| 20260506042725 | 14 | 105 | 0.0 | 0.0 | 0.00 | 0.00 | 0.00 | 90 | 1011.1 |
| 20260506042128 | 14 | 105 | 1.6 | 3.2 | 0.00 | 0.00 | 0.00 | 89 | 1010.8 |
| 20260506041543 | 14 | 105 | 0.0 | 1.6 | 0.00 | 0.00 | 0.00 | 90 | 1011.1 |
| 20260506040349 | 14 | 105 | 0.0 | 0.0 | 0.00 | 0.00 | 0.00 | 89 | 1010.8 |
| 20260506035712 | 15 | 105 | 1.6 | 1.6 | 0.00 | 0.00 | 0.00 | 87 | 1010.8 |
| 20260506035141 | 15 | 105 | 0.0 | 1.6 | 0.00 | 0.00 | 0.00 | 85 | 1010.8 |
| 20260506033949 | 15 | 105 | 1.6 | 4.8 | 0.00 | 0.00 | 0.00 | 85 | 1010.8 |
| 20260506033317 | 15 | 113 | 1.6 | 3.2 | 0.00 | 0.00 | 0.00 | 82 | 1011.1 |
| 20260506032715 | 15 | 128 | 0.0 | 1.6 | 0.00 | 0.00 | 0.00 | 84 | 1011.1 |
| 20260506032147 | 15 | 128 | 1.6 | 1.6 | 0.00 | 0.00 | 0.00 | 82 | 1011.1 |
| 20260506031550 | 15 | 128 | 0.0 | 0.0 | 0.00 | 0.00 | 0.00 | 79 | 1010.8 |
| 20260506030915 | 15 | 129 | 0.0 | 1.6 | 0.00 | 0.00 | 0.00 | 80 | 1010.8 |
| 20260506030347 | 16 | 107 | 0.0 | 1.6 | 0.00 | 0.00 | 0.00 | 75 | 1011.1 |
| 20260506025746 | 16 | 107 | 6.4 | 6.4 | 0.00 | 0.00 | 0.00 | 74 | 1010.8 |
| 20260506025129 | 16 | 119 | 3.2 | 3.2 | 0.00 | 0.00 | 0.00 | 71 | 1011.1 |
| 20260506024518 | 16 | 218 | 0.0 | 0.0 | 0.00 | 0.00 | 0.00 | 70 | 1011.5 |
| 20260506023916 | 16 | 218 | 0.0 | 0.0 | 0.00 | 0.00 | 0.00 | 70 | 1011.5 |
| 20260506023351 | 16 | 218 | 0.0 | 0.0 | 0.00 | 0.00 | 0.00 | 68 | 1011.1 |
| 20260506022716 | 17 | 218 | 0.0 | 0.0 | 0.00 | 0.00 | 0.00 | 66 | 1011.1 |
| 20260506022143 | 17 | 218 | 0.0 | 0.0 | 0.00 | 0.00 | 0.00 | 68 | 1011.1 |
| 20260506021545 | 17 | 218 | 0.0 | 0.0 | 0.00 | 0.00 | 0.00 | 67 | 1010.8 |
| 20260506020946 | 17 | 218 | 0.0 | 0.0 | 0.00 | 0.00 | 0.00 | 67 | 1010.4 |
| 20260506020334 | 17 | 218 | 0.0 | 0.0 | 0.00 | 0.00 | 0.00 | 60 | 1010.8 |
| 20260506015719 | 18 | 218 | 0.0 | 0.0 | 0.00 | 0.00 | 0.00 | 57 | 1010.8 |
| 20260506015150 | 18 | 218 | 0.0 | 0.0 | 0.00 | 0.00 | 0.00 | 58 | 1011.1 |
| 20260506014532 | 18 | 218 | 0.0 | 0.0 | 0.00 | 0.00 | 0.00 | 57 | 1010.8 |
| 20260506013937 | 18 | 218 | 0.0 | 0.0 | 0.00 | 0.00 | 0.00 | 54 | 1011.1 |
| 20260506013345 | 18 | 218 | 0.0 | 0.0 | 0.00 | 0.00 | 0.00 | 54 | 1011.1 |